Location: Newark
(41.1192°N, 81.5292°W)
Time: 05:28:46
(UTC+00:00)

N. Korean satellite - Pass Details

Date: 16 November 2019
Orbit: 455 x 507 km, 97.2° (Epoch: 13 December)

Event Time Altitude Azimuth Distance (km) Brightness Sun altitude
Rises 22:42:47 0° 175° (S) 2,537 10.4 -7.2°
Reaches altitude 10° 22:44:51 10° 179° (S) 1,670 9.5 -7.6°
Maximum altitude 22:48:24 59° 260° (W) 577 7.3 -8.2°
Drops below altitude 10° 22:52:02 10° 341° (NNW) 1,711 9.4 -8.8°
Sets 22:54:10 0° 345° (NNW) 2,606 10.3 -9.2°
